FLOCK 3S-1 (43769 NORAD) Tracking and Keplerian Element Data

This shows tracking and keplerian element data for the satellite.

Feedback or suggestion? Click here.




ElementValue
Catalog43769
NameFLOCK 3S-1
Epoch Orbit426
Epoch Day1.2708419
Epoch Year2019
RAAN75.1135
Inclination97.7606
Eccentricity0.0014788
Argument of Perigee168.4607
Mean Anonmoly191.6955
Mean Motion14.94651133
Decay Rate4.42E-06
L11 43769U 18099M 19001.27084190 .00000442 00000-0 46021-4 0 9995
L22 43769 97.7606 75.1135 0014788 168.4607 191.6955 14.94651133 4263

Live tracking and technical data element details for FLOCK 3S-1 (NORAD 43769). FLOCK 3S-1 can be tracked NOW for your location showing map with azimuth and elevation plus other details from your city location.

Track the satellite on the map from your city or location and see movement details for azimuth, elevation, latitude, longitude, range, height, and movement on the map or in text.







IsCatalogInMostPopularTable: catalog: 43769, numindb: 19
Update: records affected: 1



GetName: 43769 FLOCK 3S-1

Hit Count: updated at: Wed, 23 Jan 2019 03:09:02 GMT